Location: Eastchurch
(51.4000°N, 0.8667°E)
Time: 06:19:06
(UTC+00:00)

NOSS 2-1 (E) - Pass Details

Date: 19 January 2026
Orbit: 385 x 1749 km, 63.3° (Epoch: 7 May)

Event Time Altitude Azimuth Distance (km) Brightness Sun altitude
Rises 18:22:29 0° 314° (NW) 2,342 7.1 -18.0°
Reaches altitude 10° 18:24:21 10° 313° (NW) 1,540 6.1 -18.3°
Maximum altitude 18:27:40 77° 228° (SW) 513 3.2 -18.8°
Enters shadow 18:29:59 24° 144° (SE) 1,167 4.7 -19.1°
